This is the latest recevied weather packets stored in our database for station/object NR0A-4. If no packets are shown the sender has not sent any weather packets the latest 10 day(s).
| Time | Temp. | Humidity | Pressure | Rain* | Wind** | Luminosity | Snow |
|---|---|---|---|---|---|---|---|
| 1777404904 | 11.67° C | 55% | 1018.2 hPa | 0 mm | - | 592 W/m² | - |
| 1777404605 | 11.67° C | 56% | 1018.2 hPa | 0 mm | - | 765 W/m² | - |
| 1777404304 | 11.11° C | 60% | 1018.1 hPa | 0 mm | - | 427 W/m² | - |
| 1777404004 | 10.56° C | 56% | 1018.1 hPa | 0 mm | - | 399 W/m² | - |
| 1777403705 | 10.56° C | 56% | 1018.1 hPa | 0 mm | - | 362 W/m² | - |
| 1777403404 | 10.56° C | 58% | 1018.1 hPa | 0 mm | - | 369 W/m² | - |
| 1777403104 | 10.56° C | 57% | 1018.1 hPa | 0 mm | - | 248 W/m² | - |
| 1777402805 | 10.56° C | 60% | 1018.2 hPa | 0 mm | - | 192 W/m² | - |
| 1777402505 | 10.56° C | 56% | 1018.2 hPa | 0 mm | - | 160 W/m² | - |
| 1777402205 | 10.56° C | 57% | 1018.1 hPa | 0 mm | - | 144 W/m² | - |
| 1777401904 | 10.56° C | 57% | 1018.2 hPa | 0 mm | - | 149 W/m² | - |
| 1777401605 | 10.56° C | 56% | 1018.3 hPa | 0 mm | - | 195 W/m² | - |
| 1777401305 | 10.56° C | 59% | 1018.3 hPa | 0 mm | - | 246 W/m² | - |
| 1777401005 | 10.56° C | 56% | 1018.3 hPa | 0 mm | - | 323 W/m² | - |
| 1777400705 | 10.56° C | 56% | 1018.3 hPa | 0 mm | - | 371 W/m² | - |
| 1777400404 | 10.56° C | 56% | 1018.3 hPa | 0 mm | - | 341 W/m² | - |
| 1777400104 | 10.56° C | 55% | 1018.4 hPa | 0 mm | - | 311 W/m² | - |
| 1777399805 | 10.56° C | 57% | 1018.2 hPa | 0 mm | - | 297 W/m² | - |
| 1777399504 | 10.56° C | 62% | 1018.3 hPa | 0 mm | - | 316 W/m² | - |
| 1777399205 | 10.56° C | 58% | 1018.4 hPa | 0 mm | - | 309 W/m² | - |
| 1777398905 | 10.56° C | 60% | 1018.4 hPa | 0 mm | - | 264 W/m² | - |
| 1777398605 | 10.56° C | 56% | 1018.4 hPa | 0 mm | - | 255 W/m² | - |
| 1777398304 | 11.11° C | 61% | 1018.4 hPa | 0 mm | - | 322 W/m² | - |
| 1777398004 | 10.56° C | 61% | 1018.5 hPa | 0 mm | - | 452 W/m² | - |
| 1777397704 | 10° C | 58% | 1018.5 hPa | 0 mm | - | 417 W/m² | - |
* Rain latest hour (hover to see other rain measurements)
** Current wind speed in m/s (hover to see current wind gust speed)